sat.trackr.live / text

‹ back to catalog

IRIDE-MS2-HEO-4

NORAD 64582 · 2025-135BG

PAYLOAD ACTIVE UNKNOWN

§ Identity

Operator
Country
IT
Launch date
2025-06-23
Launch site
AFWTR
Launch vehicle
Mass (kg)
RCS (m²)

External: N2YO · Heavens-Above · Gunter

§ Orbital elements

Epoch: 2026-05-25T05:54:16.319808Z

Period
96.52 min
Inclination
97.7701°
Eccentricity
0.0003122
Mean motion
14.91886040 rev/d
Perigee alt
589.9 km
Apogee alt
594.2 km
Semi-major
6,970.2 km
B*
1.5100e-4
RAAN
259.9108°
Arg perigee
82.6373°
Mean anomaly
277.5200°
Rev number
5,047

§ Raw data

IRIDE-MS2-HEO-41 64582U 25135BG  26145.24602222  .00001470  00000+0  15100-3 0  99902 64582  97.7701 259.9108 0003122  82.6373 277.5200 14.91886040 50479

JSON: /api/v1/satellites/64582 · /tle

For live sub-satellite position, see the globe view (requires WebGL).

§ Visibility from observer

Set your observer location to see the next 7 days of passes ≥ 10°. The values pass through the URL so the page stays shareable.

No JS? Fill the form by hand. The geolocation button needs JavaScript.

§ Radio — SatNOGS DB

ModeDescriptionDownlinkUplink
FM Mode S - Transmitter 2.264 GHz

1 transmitter · refreshed weekly from db.satnogs.org